"Pseudo-MPEC" for P10IfW5

Created 2018 Jul 17 14:18:04 UT using Find_Orb

Click here for an explanation of pseudo-MPECs

 
 Astrometry: 
     P10IfW5  C2018 07 09yDAstrometry'mKEg@^]kQpB5AwL+?#RU^g;alk`6rS;rt50W'(/F51
     P10IfW5  C2018 07 09QJ'Al$mQwJ^SbKHJq90af#8llHJMP3%:FsmxJq\WZa%*Ysn@_fwwF51
     P10IfW5  C2018 07 09YDy]q)pP)dP*7w\bor?OYyYlr'gWnd.Mba0ZjZdsx;W689Ra1K6EF51
     P10IfW5  C2018 07 09JI7BQ$SyC;L+6?lJ*redacted;@yw87kDSVpi!@mm=xqpw:fIh9?F51
     P10IfW5 KC2018 07 10[cIU?RXnwVGTLj/G]d[N4XB[BCtbX7e3Wh?i\=y]KLMZM177Fe%%474
     P10IfW5 KC2018 07 10-Z:*#il5Z1HkSg4i*4L/`Tj3e[$eF]D-=_7tN]/bI1TyhF]Lm7OE474
     P10IfW5 KC2018 07 10r-1rkUYbnq7v._W294e[ZH^`og,*fX7Q*(-dEU5\RC\7!n*5YeI\474
     P10IfW5 KC2018 07 10#/Q$P8b=JyHU\Us'e.==+y.,Hlu[WDq5see.#m^;UUeT$tj3GKxU474
     P10IfW5 KC2018 07 13hoaB#GjoC%'AQpOTchoC4L!c=i0hg@W7[Sn(w%EGSov-XdVvbEc.807
     P10IfW5 KC2018 07 13?Rbt8s1sLYIw[%v(3k%@ICQy+vI*uU]);0nh\Nj_KeH.x9gr=1#p807
     P10IfW5 KC2018 07 13yrs]nO`+XUMCR!hlLnWN/hD[+U_!%^NyBBN\'`7w34*hvopNEOCP807

Station data:
(474) Mount John Observatory, Lake Tekapo  (S43.987388 E170.464960)  New
   Zealand.  Observers A. C. Gilmore, P. M. Kilmartin. Measurer P. M.
   Kilmartin. 1.0-m f/7.7 reflector + CCD.
(807) Cerro Tololo Observatory, La Serena  (S30.169136 W70.805900)  Chile.
   1.5-m Ritchey-Chrétien.
(F51) Pan-STARRS 1, Haleakala  (N20.707235 W156.255910)  US/Hawaii.
   Observers N. Primak, A. Schultz, S. Watters, J. Thiel, T. Goggia. Measurer
   PS1 Science Consortium. 1.8-m Ritchey-Chrétien + CCD.

Orbital elements:  P10IfW5
   Perihelion 2018 Oct 22.786168 +/- 1.17 TT = 18:52:04 (JD 2458414.286168)
Epoch 2018 Jul 13.0 TT = JDT 2458312.5   Earth MOID: 0.4460   Ma: 0.0735
M 328.36997 +/- 2.0                 (J2000 ecliptic)          AutoNEOCP
n   0.31074977 +/- 0.0158           Peri.  271.73740 +/- 1.3
a   2.15871594 +/- 0.0731           Node   121.03779 +/- 0.09
e   0.5310775 +/- 0.0117            Incl.   61.77503 +/- 0.57
P   3.17                   H 20.2   G  0.15   U 10.0  
q 1.01227039 +/- 0.00868    Q 3.30516148 +/- 0.131
From 11 observations 2018 July 9-13; mean residual 0".13
Residuals in arcseconds: 
180709 F51  .17-  .19+    180710 474  .21+  .02+    180713 807  .02-  .01+    
180709 F51  .01-  .14-    180710 474  .01+  .24+    180713 807  .01+  .00     
180709 F51  .24+  .11-    180710 474  .05-  .25-    180713 807  .01+  .01-    
180709 F51  .07-  .06+    180710 474  .17-  .01-    

Ephemerides (geocentric):
Date (UTC) HH   RA              Dec         delta   r     elong  mag " sig PA
---- -- -- --  -------------   -----------  ------ ------ -----  --- ---- ---
2018 07 17 14  21 50 04.685   -26 28 57.06  .53132 1.5043 151.3 20.7  5.1 124
2018 07 17 15  21 50 03.528   -26 33 13.27  .53089 1.5039 151.4 20.7  5.1 124
2018 07 17 16  21 50 02.363   -26 37 29.89  .53046 1.5036 151.4 20.7  5.2 124
2018 07 17 17  21 50 01.190   -26 41 46.91  .53003 1.5033 151.4 20.7  5.3 124
2018 07 17 18  21 50 00.009   -26 46 04.35  .52960 1.5030 151.5 20.7  5.4 124
2018 07 17 19  21 49 58.820   -26 50 22.20  .52918 1.5027 151.5 20.7  5.5 124
2018 07 17 20  21 49 57.623   -26 54 40.45  .52875 1.5024 151.5 20.7  5.6 124
2018 07 17 21  21 49 56.417   -26 58 59.11  .52833 1.5021 151.6 20.7  5.6 125
2018 07 17 22  21 49 55.204   -27 03 18.18  .52791 1.5018 151.6 20.7  5.7 125
2018 07 17 23  21 49 53.982   -27 07 37.66  .52749 1.5015 151.6 20.7  5.8 125
2018 07 18 00  21 49 52.752   -27 11 57.54  .52707 1.5012 151.7 20.7  5.9 125
2018 07 18 01  21 49 51.513   -27 16 17.84  .52665 1.5009 151.7 20.7  6.0 125
2018 07 18 02  21 49 50.266   -27 20 38.53  .52623 1.5006 151.7 20.7  6.1 125
2018 07 18 03  21 49 49.011   -27 24 59.64  .52581 1.5003 151.7 20.7  6.2 125
2018 07 18 04  21 49 47.748   -27 29 21.15  .52539 1.5000 151.8 20.7  6.3 126
2018 07 18 05  21 49 46.476   -27 33 43.07  .52498 1.4997 151.8 20.6  6.3 126
2018 07 18 06  21 49 45.196   -27 38 05.39  .52457 1.4994 151.8 20.6  6.4 126
2018 07 18 07  21 49 43.908   -27 42 28.12  .52415 1.4991 151.9 20.6  6.5 126
2018 07 18 08  21 49 42.611   -27 46 51.25  .52374 1.4988 151.9 20.6  6.6 126
2018 07 18 09  21 49 41.305   -27 51 14.79  .52333 1.4985 151.9 20.6  6.7 126
2018 07 18 10  21 49 39.991   -27 55 38.73  .52292 1.4982 152.0 20.6  6.8 126
2018 07 18 11  21 49 38.669   -28 00 03.07  .52251 1.4978 152.0 20.6  6.9 126
2018 07 18 12  21 49 37.337   -28 04 27.82  .52210 1.4975 152.0 20.6  7.0 127
2018 07 18 13  21 49 35.998   -28 08 52.97  .52170 1.4972 152.0 20.6  7.1 127
2018 07 18 14  21 49 34.649   -28 13 18.52  .52129 1.4969 152.1 20.6  7.2 127
2018 07 18 15  21 49 33.292   -28 17 44.48  .52089 1.4966 152.1 20.6  7.3 127
2018 07 18 16  21 49 31.927   -28 22 10.84  .52049 1.4963 152.1 20.6  7.4 127
2018 07 18 17  21 49 30.552   -28 26 37.60  .52008 1.4960 152.2 20.6  7.5 127
2018 07 18 18  21 49 29.169   -28 31 04.76  .51968 1.4957 152.2 20.6  7.6 127
2018 07 18 19  21 49 27.777   -28 35 32.32  .51928 1.4954 152.2 20.6  7.7 127
2018 07 18 20  21 49 26.377   -28 40 00.29  .51888 1.4951 152.2 20.6  7.8 128
2018 07 18 21  21 49 24.967   -28 44 28.65  .51849 1.4948 152.3 20.6  7.9 128
2018 07 18 22  21 49 23.549   -28 48 57.41  .51809 1.4945 152.3 20.6  8.0 128
2018 07 18 23  21 49 22.121   -28 53 26.57  .51769 1.4942 152.3 20.6  8.1 128
2018 07 19 00  21 49 20.685   -28 57 56.13  .51730 1.4939 152.3 20.6  8.2 128
2018 07 19 01  21 49 19.240   -29 02 26.09  .51691 1.4936 152.4 20.6  8.3 128
2018 07 19 02  21 49 17.786   -29 06 56.45  .51651 1.4933 152.4 20.6  8.4 128
2018 07 19 03  21 49 16.323   -29 11 27.20  .51612 1.4930 152.4 20.6  8.5 128
2018 07 19 04  21 49 14.851   -29 15 58.35  .51573 1.4927 152.4 20.6  8.6 129
2018 07 19 05  21 49 13.370   -29 20 29.89  .51534 1.4924 152.5 20.6  8.7 129
2018 07 19 06  21 49 11.879   -29 25 01.84  .51496 1.4920 152.5 20.6  8.9 129
2018 07 19 07  21 49 10.380   -29 29 34.17  .51457 1.4917 152.5 20.6  9.0 129
2018 07 19 08  21 49 08.871   -29 34 06.90  .51419 1.4914 152.5 20.6  9.1 129
2018 07 19 09  21 49 07.353   -29 38 40.03  .51380 1.4911 152.6 20.6  9.2 129
2018 07 19 10  21 49 05.826   -29 43 13.55  .51342 1.4908 152.6 20.6  9.3 129
2018 07 19 11  21 49 04.290   -29 47 47.46  .51304 1.4905 152.6 20.6  9.4 129
2018 07 19 12  21 49 02.745   -29 52 21.77  .51265 1.4902 152.6 20.6  9.5 129
2018 07 19 13  21 49 01.190   -29 56 56.47  .51228 1.4899 152.6 20.6  9.7 130